Location: Unspecified
(0.0000°N, 0.0000°E)
Time: 18:56:52
(UTC+00:00)

Vanguard 2 Rocket - Pass Details

Date: 21 January 2020
Orbit: 554 x 3327 km, 32.9° (Epoch: 20 February)

Event Time Altitude Azimuth Distance (km) Brightness Sun altitude
Rises 18:30:54 0° 251° (WSW) 7,292 14.7 -4.6°
Reaches altitude 10° 18:39:41 10° 231° (SW) 6,025 12.5 -6.7°
Maximum altitude 18:48:55 15° 200° (SSW) 5,038 11.3 -8.8°
Drops below altitude 10° 18:56:37 10° 168° (SSE) 4,871 10.7 -10.7°
Sets 19:02:20 0° 146° (SSE) 5,296 10.7 -12.0°
